Ketchikan, AK

3:51 PM AKST on November 15, 2018 (GMT -0900)
Ketchikan International

Weather History for PAKT - December, 2017

Change the Weather History Date:

Wednesday, December 27, 2017

  Actual Average Record
Temperature  
Mean Temperature 24 °F -  
Max Temperature 32 °F 39 °F 50 °F (1956)
Min Temperature 16 °F 29 °F 7 °F (1996)
Degree Days  
Heating Degree Days 41    
Moisture  
Dew Point 17 °F    
Average Humidity 75    
Maximum Humidity 88    
Minimum Humidity 55    
Precipitation  
Precipitation 0.01 in - - ()
Sea Level Pressure  
Sea Level Pressure 30.28 in    
Wind  
Wind Speed 3 mph (West)    
Max Wind Speed 7 mph    
Max Gust Speed -    
Visibility 10 miles    
Events Snow    
Averages and records for this station are not official NWS values.
T = Trace of Precipitation, MM = Missing Value Source: NWS Daily Summary

Daily Weather History Graph

Daily Weather History Graph

Search for Another Location

Airport or City:

Astronomy

Dec. 27, 2017 Rise Set
Actual Time 8:14 AM AKST 3:22 PM AKST
Civil Twilight 7:28 AM AKST 4:08 PM AKST
Nautical Twilight 6:40 AM AKST 4:56 PM AKST
Astronomical Twilight 5:55 AM AKST 5:41 PM AKST
Moon 12:30 PM AKST (12/27) 12:53 AM AKST (12/27)
Length of Visible Light 8h 40m
Length of Day
7h 08m
Waxing Gibbous, 66% of the Moon is Illuminated
Dec 27
Waxing Gibbous
Jan 1
Full
Jan 8
Last Quarter
Jan 16
New
Jan 24
First Quarter

Hourly Weather History & Observations

Time (AKST) Temp. Windchill Dew Point Humidity Pressure Visibility Wind Dir Wind Speed Gust Speed Precip Events Conditions
12:53 AM 32.0 °F 27.5 °F 28.0 °F 85% 30.26 in 9.0 mi WNW 4.6 mph - 0.01 in Snow Light Snow
1:53 AM 30.0 °F - 27.0 °F 88% 30.27 in 10.0 mi Calm Calm - 0.00 in   Overcast
2:53 AM 30.9 °F 24.3 °F 25.0 °F 79% 30.27 in 10.0 mi WNW 6.9 mph - N/A   Overcast
3:53 AM 30.0 °F 26.5 °F 24.1 °F 79% 30.28 in 10.0 mi West 3.5 mph - N/A   Overcast
4:53 AM 28.9 °F 23.9 °F 23.0 °F 78% 30.28 in 10.0 mi WNW 4.6 mph - N/A   Overcast
5:53 AM 28.9 °F 21.9 °F 21.0 °F 72% 30.29 in 10.0 mi West 6.9 mph - N/A   Overcast
6:12 AM 28.9 °F 21.9 °F 19.9 °F 69% 30.28 in 10.0 mi West 6.9 mph - N/A   Overcast
6:53 AM 28.4 °F 21.2 °F 17.6 °F 64% 30.29 in 10.0 mi WNW 6.9 mph - N/A   Scattered Clouds
7:53 AM 23.0 °F - 18.0 °F 81% 30.30 in 10.0 mi Calm Calm - N/A   Clear
8:53 AM 21.2 °F - 17.6 °F 86% 30.31 in 10.0 mi Calm Calm - N/A   Clear
9:53 AM 26.6 °F - 17.6 °F 69% 30.33 in 10.0 mi Calm Calm - N/A   Clear
10:53 AM 28.4 °F - 17.6 °F 64% 30.33 in 10.0 mi Calm Calm - N/A   Clear
11:53 AM 28.4 °F 23.3 °F 14.0 °F 55% 30.32 in 10.0 mi WNW 4.6 mph - N/A   Clear
12:53 PM 26.6 °F - 15.8 °F 64% 30.31 in 10.0 mi Calm Calm - N/A   Clear
1:53 PM 26.6 °F 21.2 °F 19.4 °F 74% 30.30 in 10.0 mi SSW 4.6 mph - N/A   Clear
2:53 PM 24.8 °F - 17.6 °F 74% 30.30 in 10.0 mi Calm Calm - N/A   Clear
3:53 PM 19.4 °F - 14.0 °F 80% 30.28 in 10.0 mi Calm Calm - N/A   Clear
4:53 PM 19.0 °F - 15.1 °F 85% 30.27 in 10.0 mi Calm Calm - N/A   Clear
5:53 PM 19.0 °F 13.9 °F 12.9 °F 77% 30.27 in 10.0 mi SW 3.5 mph - N/A   Clear
6:53 PM 18.0 °F 12.7 °F 12.9 °F 81% 30.26 in 10.0 mi WSW 3.5 mph - N/A   Clear
7:53 PM 18.0 °F 12.7 °F 12.0 °F 78% 30.24 in 10.0 mi SW 3.5 mph - N/A   Clear
8:53 PM 16.0 °F - 10.9 °F 81% 30.23 in 10.0 mi Calm Calm - N/A   Clear
9:53 PM 17.1 °F 10.0 °F 6.1 °F 62% 30.22 in 10.0 mi WSW 4.6 mph - N/A   Clear
10:53 PM 17.1 °F 11.7 °F 12.9 °F 84% 30.21 in 10.0 mi South 3.5 mph - N/A   Clear
11:53 PM 17.1 °F - 10.0 °F 74% 30.18 in 10.0 mi Calm Calm - N/A   Clear